DECAYED
Showing default

HAWK-4B, 52165 (Decayed)

Orbit data source: Space-Track

HAWK-4B, 52165 was a payload satellite owned by HawkEye 360 (US) in LEO that was launched on Fri, 01 Apr 2022 UTC via an FALCON 9 launch vehicle from the Air Force Eastern Test Range (AFETR). Payload-class satellites include a variety of spacecraft equipped with specific instruments for various scientific and technological missions. These include communications satellites like Starlink; space stations such as the ISS; scientific satellites like the Hubble; Earth observation satellites from companies like Planet Labs, Umbra, and HawkEye 360; GPS; miniature CubeSats for education and research; and military/defense satellites.

Not visible in the next 10 days
Identifier
52165, 2022-033J
Orbit
Decayed
Country
Flag of USUS
Related business
Manufacturer
UTIAS-SFL
Mission
Decayed Commercial Sigint
Bus & Motor
DEFIANT, Unknown motor
Mass
31 kg wet, 30 kg dry
Launch date (UTC)
2022-04-01 (4 years ago)
Launch vehicle
FALCON 9
Launch site
Air Force Eastern Test Range (AFETR)
Object type
Payload
Rocket body
Debris
Shape & HBR
Box + 2 Pan, 1.0 m
Radar Cross Section
0.348 m², Medium (>0.1 m² and < 1m²)

Expand to show TLE details & history
Last TLE update: 1 year ago

TLE from 1 year ago
0 HAWK-4B
1 52165U 22033J   25242.98483040  .12674380  25195-5  19346-3 0  9994
2 52165  97.2767 346.0809 0012448 263.9296  96.0590 16.47824366191978
Epoch: 2025-08-30T23:38Z
TLE epoch observation values (Epoch: 2025-08-30T23:38:09.346Z)
Latitude
0.00001°
Longitude
12.13068°
Altitude
149.204 km
Speed
7.816 km/s
True Right ascension
23h 04m 19s
True Declination
0° 00' 00"
Sunlit
Object was in full shadow at epoch
Visualization orbit readout
Latitude
Unknown
Longitude
Unknown
Altitude
Unknown
Speed
Unknown
Apparent Right ascension
Unknown
Apparent Declination
Unknown
Sunlit
N/A
Visualization observer readout
Local Sidereal Time
21:57:03
Azimuth
Unknown
Elevation
Unknown
Doppler factor
Unknown
Orbital elements
Apogee altitude
149.979 km
Perigee altitude
133.747 km
Semi-major axis
6,520 km
Eccentricity
0.00124
Inclination
97.2767°
RAAN
346.0809°
Arg. of periapsis
263.9296°
True anomaly
96.20082°
Mean anomaly
96.059°
Eccentric anomaly
96.12991°
Mean motion
4.12261 °/min
Orbital period
87.32 mins
BSTAR
0.00019346
Loading maneuver chart data...
Computing Atmospheric mass density...

Documentation

Showing up to 5 results
|